Location: Amon Carter Post Office
(32.8281°N, 97.0484°W)
Time: 10:38:06
(UTC+00:00)

CZ-2C R/B - Pass Details

Date: 08 December 2021
Orbit: 784 x 870 km, 98.2° (Epoch: 28 January)

Event Time Altitude Azimuth Distance (km) Brightness Sun altitude
Rises 12:31:10 0° 190° (S) 3,409 6.0 -10.0°
Reaches altitude 10° 12:33:47 10° 200° (SSW) 2,466 5.1 -9.4°
Maximum altitude 12:38:37 32° 263° (W) 1,409 3.4 -8.5°
Drops below altitude 10° 12:43:24 10° 325° (NW) 2,429 4.6 -7.6°
Sets 12:45:59 0° 335° (NNW) 3,352 5.4 -7.1°
